Temperature
22 22 22 22 22 22 23 24 25 25 25 25 25 25 24 23 21 19 19 19 19 18 18 18 18 18 18 18 18 18 18 18 18 18 18 18 18 18 18 18 18 18 18 18 18 18 18 18 18
22 22 22 22 22 22 23 24 24 25 25 25 25 24 24 22 21 19 19 19 19 18 18 18 18 18 18 18 17 17 18 18 18 18 18 18 18 18 18 18 18 18 18 18 18 18 18 18 18
22 22 23 23 23 23 23 24 25 25 25 25 24 24 23 22 21 19 19 19 18 18 18 18 18 18 18 17 17 17 17 17 17 18 18 18 18 18 18 18 18 18 18 18 18 18 18 18 18
22 23 24 23 24 25 25 25 25 25 25 25 24 23 22 21 20 19 19 19 18 18 18 18 18 18 18 17 17 17 17 17 17 17 18 17 17 17 18 17 17 17 18 18 18 18 18 18 17
23 23 23 23 24 25 26 26 26 25 25 25 24 23 21 20 20 19 19 19 18 18 18 18 18 18 18 17 17 17 17 17 17 17 17 17 17 17 17 17 17 17 17 17 18 18 17 17 17
23 24 23 23 24 25 26 26 26 26 25 25 24 23 21 20 20 19 19 19 19 18 18 18 18 18 18 17 17 17 17 17 17 17 17 17 17 17 17 17 17 17 17 17 17 17 17 17 17
23 23 23 24 24 25 26 26 26 25 25 25 24 23 21 20 20 19 19 19 19 18 18 18 18 18 18 17 17 17 17 17 17 17 17 17 17 17 17 17 17 17 17 17 17 17 17 17 17
24 24 24 24 24 24 26 26 25 25 25 24 24 23 21 20 20 20 19 19 19 19 18 18 18 18 18 17 17 17 17 17 17 17 17 17 17 17 17 17 17 17 17 17 17 17 17 17 17
24 23 23 24 24 25 26 26 25 25 24 24 24 23 21 21 20 20 19 19 19 19 19 18 18 18 17 17 17 17 17 17 17 17 17 17 17 17 17 17 17 17 17 17 17 17 17 17 17
25 22 24 25 26 25 26 25 25 25 24 24 23 22 21 21 20 20 20 20 19 19 19 19 18 18 18 17 17 17 17 17 17 17 17 17 17 17 17 16 17 17 17 16 16 16 17 16 16
25 24 25 26 26 26 25 25 25 25 24 24 23 22 21 21 21 20 20 20 19 19 19 19 19 18 18 17 17 17 17 17 17 17 17 17 16 16 16 16 16 16 16 16 16 16 16 16 16
25 25 26 26 25 25 25 25 25 24 24 24 23 22 22 21 21 21 21 20 20 19 19 19 19 18 18 17 17 17 17 17 17 17 17 17 16 16 16 16 16 16 16 16 16 16 16 16 16
25 25 25 25 25 25 25 25 25 24 24 24 23 23 22 22 22 21 21 20 20 19 19 19 19 18 18 18 17 17 17 17 17 17 17 17 16 16 16 16 16 16 16 16 16 16 16 16 16
25 25 25 25 25 25 25 25 24 24 24 24 23 23 22 22 22 21 21 21 20 19 19 19 19 18 18 18 17 17 17 17 17 17 17 17 16 16 16 16 16 16 16 16 16 16 16 16 16
25 25 25 25 25 25 25 24 24 24 24 24 23 23 22 22 22 22 21 21 20 20 19 19 19 18 18 18 18 17 17 17 17 17 17 16 16 16 16 16 16 16 16 16 16 16 16 16 16
25 24 23 25 25 25 24 22 24 24 24 24 23 23 22 22 22 22 21 21 20 20 19 19 19 18 18 18 17 17 17 17 17 17 17 17 16 16 16 16 16 16 16 15 15 15 15 15 15
24 23 23 24 25 25 24 23 24 24 24 24 24 23 22 22 22 21 21 21 21 20 19 19 19 18 18 18 17 17 17 17 16 16 16 16 16 16 16 16 16 15 15 15 15 15 15 15 15
23 24 24 24 25 25 24 23 24 24 24 24 23 23 23 22 22 21 21 21 20 20 20 19 19 18 18 17 17 17 17 17 16 16 16 16 16 16 16 16 15 15 15 15 15 15 15 15 15
25 24 24 24 25 25 24 23 24 24 24 24 23 23 22 22 21 21 21 20 20 20 20 19 19 18 18 17 17 17 17 16 16 16 16 16 16 16 16 15 15 15 15 15 15 15 15 15 15
25 24 24 25 26 25 24 23 24 24 23 23 23 22 22 22 21 21 20 20 20 20 20 19 19 18 18 18 17 17 17 16 16 16 16 16 16 15 15 15 15 15 15 15 15 15 15 14 15
25 24 24 24 25 25 24 23 23 23 23 22 22 22 22 21 21 20 20 20 20 20 19 19 19 19 18 18 17 17 17 16 16 16 16 16 15 15 15 15 15 15 15 15 14 14 14 14 14
24 25 25 24 24 23 24 22 23 23 22 22 22 22 22 21 21 20 20 20 19 19 19 19 19 18 18 17 17 17 17 16 16 16 16 16 16 15 15 15 15 15 15 15 14 14 14 14 14
25 25 25 24 24 23 24 23 23 23 22 22 22 22 22 21 21 20 20 19 19 19 19 18 18 18 18 17 17 17 17 16 16 16 16 16 15 15 15 15 15 15 14 14 14 14 14 14 14
25 25 25 24 24 22 24 23 22 23 23 22 22 22 21 21 21 20 20 19 19 19 18 18 18 18 17 17 17 17 17 16 16 16 16 16 15 15 15 15 15 15 14 14 14 14 14 14 14
25 23 22 22 22 22 25 24 23 23 24 23 22 22 22 21 21 20 19 19 19 18 18 18 17 17 17 17 17 17 17 16 16 16 16 15 15 15 15 15 15 15 14 14 14 14 14 14 14
24 24 22 21 22 23 24 23 23 24 23 23 22 22 21 21 20 19 19 18 18 18 17 17 17 17 17 17 16 16 16 16 16 16 16 15 15 15 15 15 15 14 14 14 14 14 14 14 14
24 24 24 23 23 22 23 23 23 23 23 22 22 21 21 20 20 19 18 18 18 17 17 17 17 17 17 16 16 16 16 16 16 16 15 15 15 15 15 15 15 14 14 14 14 14 14 13 13
24 24 24 23 21 21 23 23 22 21 22 22 21 21 20 20 19 19 18 17 17 17 16 16 16 16 16 16 16 16 16 16 15 15 15 15 15 15 15 15 15 14 14 14 14 14 14 14 13
24 23 23 23 23 22 21 22 24 22 22 22 22 21 20 20 19 18 18 17 17 16 16 16 16 16 16 16 16 16 16 15 15 15 15 15 15 15 14 14 14 14 14 14 14 13 13 13 13
24 24 23 22 22 22 21 21 23 23 23 22 22 21 20 19 19 18 17 17 16 16 16 15 15 15 15 15 15 15 15 15 15 15 15 15 14 14 14 14 14 14 14 14 13 13 13 13 13
Wind_Speed
11 12 7 3 2 1 5 7 8 7 7 9 9 9 12 12 9 7 3 5 8 10 12 11 10 10 10 10 10 10 10 10 10 11 11 11 12 12 12 12 12 12 12 12 12 12 12 12 11
11 7 4 3 1 2 6 7 9 9 7 6 7 10 12 12 11 8 5 5 9 11 12 11 10 10 10 10 10 10 10 10 10 10 10 11 11 12 12 12 12 12 12 12 12 11 11 11 11
11 7 3 2 2 4 6 8 9 8 6 5 7 10 9 8 9 6 5 7 10 11 13 12 10 10 10 10 10 10 10 10 10 10 10 11 11 12 12 12 11 12 12 12 11 11 11 10 10
6 3 3 0 5 8 7 8 7 7 5 5 7 8 10 9 7 8 7 8 11 11 13 12 11 10 10 9 9 10 10 10 10 10 11 11 11 12 11 11 11 12 11 11 11 10 10 10 10
3 3 1 3 6 7 7 7 7 6 6 9 10 12 11 11 11 10 7 8 10 10 12 12 11 10 10 9 9 9 10 10 10 10 10 11 11 11 11 11 11 11 11 11 11 10 10 10 10
2 2 1 3 6 6 5 6 6 7 8 8 9 11 9 9 8 7 7 7 9 9 11 12 11 11 10 10 10 10 10 10 10 10 11 11 11 11 12 12 12 11 11 10 10 10 10 9 9
2 2 1 4 6 5 6 5 6 7 7 6 7 9 8 9 7 7 7 7 7 7 9 10 11 11 11 12 12 12 12 11 10 10 10 10 11 11 12 12 11 11 10 10 9 9 9 9 8
3 2 1 3 5 5 5 5 5 6 7 7 5 7 8 10 8 7 7 7 6 6 6 8 9 11 11 11 12 12 11 10 9 9 9 9 10 11 12 12 11 10 9 8 8 8 8 8 7
2 1 1 3 4 4 5 5 5 6 7 6 8 11 12 12 9 8 6 6 6 6 6 6 7 7 10 10 10 10 10 8 8 7 7 7 7 9 10 11 10 9 8 7 6 6 5 5 5
1 0 1 3 4 4 4 4 4 5 6 7 10 13 13 10 9 7 6 6 6 5 5 5 6 6 7 8 8 6 6 6 5 5 6 5 6 8 10 10 9 7 6 5 4 3 3 3 3
2 1 2 4 4 4 4 4 4 4 4 6 9 12 11 9 8 7 7 7 7 5 4 5 6 7 6 4 5 4 4 4 4 5 7 6 6 7 8 6 6 5 3 2 2 2 2 3 4
2 1 0 3 3 2 2 3 3 4 4 6 8 12 11 8 8 7 7 7 7 5 4 5 6 6 6 6 4 3 3 3 3 4 7 5 2 3 4 3 4 3 3 3 3 2 4 5 6
2 2 1 3 2 1 2 3 2 4 5 6 9 11 9 8 7 7 7 8 8 6 5 5 5 6 6 5 3 4 3 3 4 4 5 6 3 2 3 3 4 3 3 3 2 3 4 5 5
1 2 2 3 3 2 2 2 3 3 3 6 7 9 8 7 7 7 8 8 8 7 6 5 5 6 6 5 3 4 4 4 5 3 4 6 4 3 3 3 3 3 3 3 3 3 3 3 4
3 3 4 3 4 3 2 2 4 5 4 5 6 7 8 6 6 6 7 7 8 7 7 6 5 5 6 5 4 4 4 4 3 3 4 6 5 4 4 3 3 3 4 4 4 4 3 3 4
6 5 4 5 5 5 4 3 4 6 5 5 5 6 6 7 5 5 6 6 8 8 8 7 5 5 6 5 4 3 4 4 3 4 4 5 5 6 4 3 2 3 4 3 3 3 3 3 3
5 5 5 4 6 4 3 2 4 6 5 6 6 8 8 8 6 5 5 5 7 8 9 8 6 6 6 5 4 3 4 4 3 4 4 4 4 6 5 2 2 4 3 3 3 4 3 3 3
4 4 3 3 4 4 3 3 4 6 6 6 5 7 8 7 6 5 4 5 5 6 8 8 6 6 6 4 4 3 3 2 3 3 3 3 3 5 4 2 3 3 3 3 3 3 3 2 2
4 4 3 2 3 3 3 3 4 5 6 5 5 5 6 7 7 7 5 5 5 5 6 8 7 5 5 4 3 3 2 2 2 2 3 2 2 3 3 2 3 3 3 2 2 3 2 1 2
5 5 3 2 3 3 3 3 3 4 5 4 4 4 4 5 7 6 6 5 5 5 4 7 6 6 5 3 3 3 3 2 3 2 2 1 1 2 2 2 2 3 2 1 2 3 2 1 1
7 5 3 3 4 5 4 5 6 5 5 5 3 3 5 5 5 6 5 5 4 4 4 4 5 6 6 5 3 3 3 1 2 2 2 1 1 2 1 2 2 3 3 2 2 2 2 1 1
5 3 4 5 6 5 5 4 5 8 7 6 5 4 4 5 5 5 4 4 4 3 4 4 4 4 5 5 4 4 3 2 3 3 3 3 3 2 2 1 1 2 3 3 3 3 2 2 1
4 4 6 8 8 9 9 6 4 9 8 8 7 6 4 5 5 5 5 4 5 4 3 3 3 3 4 4 5 3 2 2 1 2 3 3 2 2 3 2 2 2 2 3 3 2 2 2 2
4 7 9 9 7 9 10 7 3 6 7 8 8 7 7 6 6 5 5 4 4 5 3 2 3 3 3 3 4 4 4 3 2 2 3 2 2 3 3 3 2 2 2 3 3 3 3 2 1
6 6 4 5 6 7 6 5 2 6 7 7 7 6 5 4 4 4 4 4 4 5 4 3 3 3 3 4 4 5 5 4 4 3 3 3 2 2 3 3 2 2 2 2 2 3 3 3 2
8 8 5 4 4 3 3 2 5 8 7 7 6 5 4 4 4 4 4 3 4 4 3 3 3 3 4 4 4 4 4 3 3 3 3 3 2 2 3 3 3 3 3 2 2 2 3 2 2
7 7 7 7 10 8 3 4 6 7 7 7 7 6 5 4 4 5 4 3 3 3 2 2 3 3 3 4 3 2 3 3 3 2 2 3 2 2 2 3 3 3 3 3 2 2 3 3 3
9 8 6 6 5 6 4 4 5 8 8 7 7 6 5 5 5 5 4 3 3 3 2 2 2 2 2 2 2 2 3 2 2 3 2 2 2 2 2 1 2 2 2 3 2 3 3 3 3
8 9 7 6 7 5 5 1 3 7 7 7 6 6 6 5 5 4 4 3 3 3 2 1 1 1 1 1 2 2 3 2 2 2 3 3 2 3 2 2 2 1 1 2 2 2 3 3 3
7 8 8 6 6 6 6 1 4 5 5 5 5 5 6 6 5 4 4 3 3 3 2 1 1 1 1 1 1 1 2 2 2 2 2 2 2 2 2 2 2 2 1 1 2 2 2 3 3
Wind_Direction
272 253 248 259 266 203 70 72 75 64 57 49 44 59 65 55 56 86 122 85 94 98 98 84 72 69 67 65 64 66 67 67 68 70 69 71 75 75 74 75 77 78 78 76 74 73 69 68 68
282 273 269 245 241 89 79 77 74 68 68 65 58 61 70 68 75 94 106 93 97 94 91 83 75 70 68 67 67 69 71 69 70 73 74 76 79 79 77 76 77 78 79 79 78 77 73 71 70
268 268 266 264 34 74 88 89 88 83 72 70 73 63 58 68 76 94 108 105 91 90 92 89 81 73 69 69 72 75 75 73 73 76 78 81 82 80 79 78 79 80 82 82 81 78 76 73 70
264 262 243 147 65 70 89 101 101 96 81 70 78 78 71 64 83 102 108 102 98 99 99 98 89 79 73 72 78 84 83 79 77 79 81 84 84 83 81 79 79 80 82 83 83 81 78 74 70
252 253 216 99 79 78 82 91 96 94 81 74 80 90 86 80 92 105 105 102 106 106 107 109 101 90 81 79 82 90 90 86 83 84 85 87 86 86 84 80 79 79 79 81 81 83 82 76 69
276 262 186 103 96 89 88 90 95 87 86 91 98 101 97 106 101 106 105 100 103 109 112 114 112 102 92 84 88 96 99 95 92 91 92 92 89 86 84 82 81 80 80 80 80 82 82 75 66
273 291 123 108 103 96 87 81 81 80 83 79 93 102 113 114 112 118 105 94 96 101 114 122 124 116 102 92 94 101 104 104 103 102 100 99 96 92 89 86 83 83 83 84 86 86 83 76 68
285 300 74 94 102 95 97 98 93 85 84 82 83 100 122 126 133 126 114 110 109 110 109 119 123 124 121 113 108 111 114 115 117 115 113 112 109 102 94 91 86 85 87 90 94 96 92 85 77
282 312 14 95 100 103 109 104 102 97 95 85 81 95 117 127 134 131 129 122 112 110 112 112 116 119 120 120 121 129 131 132 132 135 130 122 118 113 104 100 99 95 94 98 105 112 112 105 95
194 15 39 76 97 108 118 117 117 117 112 106 103 107 118 133 141 143 139 129 120 111 112 121 119 111 109 112 126 134 129 146 145 131 128 118 105 107 110 118 114 113 111 117 131 150 157 151 125
147 169 45 68 68 94 119 121 120 120 124 123 128 129 134 145 149 148 143 132 125 124 113 112 115 111 110 104 110 101 107 124 111 106 107 97 104 116 118 125 128 123 109 92 121 164 128 107 97
142 148 85 81 82 95 107 106 96 103 104 121 133 138 144 155 154 145 136 125 115 108 110 110 112 111 111 102 103 108 103 98 94 96 104 98 96 102 110 111 107 104 86 62 56 65 73 75 75
166 155 141 112 125 155 122 111 104 92 98 116 131 137 150 157 142 136 132 128 123 122 114 100 105 107 105 101 115 100 85 84 86 60 91 100 93 96 99 98 96 88 80 73 55 60 67 67 60
193 171 181 184 169 165 130 144 140 105 116 138 143 145 153 149 144 144 139 132 128 129 120 111 104 104 107 113 113 98 93 85 82 71 82 91 90 85 82 93 84 77 76 75 77 77 86 84 79
204 215 216 196 186 179 153 186 151 151 158 162 156 148 146 149 154 145 134 137 134 134 126 112 102 101 103 105 99 98 96 89 82 71 75 91 85 83 84 87 88 82 74 70 66 65 80 94 95
225 219 223 212 196 186 204 196 151 153 165 174 167 154 148 153 167 142 139 143 137 136 127 124 121 107 99 95 93 98 92 85 75 74 62 76 81 84 76 78 83 85 77 72 74 71 70 72 74
224 228 218 192 190 194 207 204 156 168 170 184 175 163 166 167 160 144 144 137 130 130 132 134 126 120 106 104 105 89 94 94 87 76 56 61 78 90 91 78 71 86 80 71 73 70 70 71 72
233 231 221 194 185 194 191 192 184 182 186 189 174 171 170 163 160 148 141 124 123 130 133 132 129 133 122 112 107 95 96 99 92 86 71 51 71 90 96 102 87 79 84 73 76 81 72 73 82
264 260 253 227 184 195 207 197 194 176 185 181 177 170 166 163 163 148 143 138 139 137 136 132 143 140 128 129 128 124 122 125 115 115 95 67 70 99 105 88 93 83 88 93 88 94 85 64 75
256 254 253 244 214 210 215 219 207 184 181 170 164 158 159 158 153 143 154 158 153 145 144 141 145 141 132 132 142 143 127 137 126 126 120 127 101 95 116 139 129 120 112 102 101 102 91 47 59
248 250 252 253 265 249 229 233 195 174 162 150 167 169 155 152 148 149 162 154 152 151 150 142 146 144 143 149 136 113 109 106 126 150 148 174 166 139 128 106 129 149 150 145 144 124 128 151 313
259 280 270 252 255 256 231 248 203 163 161 170 178 186 169 160 156 154 160 152 158 160 150 152 156 154 147 145 143 154 160 171 180 165 164 183 170 148 145 141 175 175 159 160 177 155 155 156 222
272 282 267 258 255 264 248 251 198 164 171 175 175 177 177 160 165 164 157 156 165 147 137 148 145 141 139 143 152 168 175 182 164 149 155 171 170 169 174 176 197 196 176 177 176 157 163 178 191
267 264 258 248 247 252 240 239 207 174 171 166 168 174 178 169 167 169 158 154 143 122 130 145 141 142 142 152 161 181 185 176 167 166 170 183 182 190 193 190 188 191 190 190 176 171 178 196 208
242 256 259 234 220 237 216 220 165 130 131 142 153 159 161 158 160 149 138 138 135 130 138 154 157 160 166 184 191 196 183 180 189 187 183 184 192 192 194 188 188 198 201 191 164 175 184 198 205
238 243 257 281 283 284 226 198 127 116 114 122 130 128 132 141 144 135 132 130 133 137 144 174 182 185 185 201 212 201 174 172 186 182 172 183 189 191 190 189 191 196 189 190 176 179 197 196 196
249 246 257 276 285 281 223 157 132 132 136 137 141 144 151 144 135 133 129 130 128 136 151 186 186 198 194 203 203 195 175 173 182 177 176 176 178 184 179 185 198 189 182 184 174 186 206 205 203
248 270 269 256 274 277 267 199 169 166 161 156 154 155 152 146 141 128 124 127 131 138 160 187 192 207 205 189 193 196 170 179 172 171 175 164 160 154 166 191 191 186 177 175 191 196 211 208 207
225 241 257 270 265 276 287 315 101 146 154 157 156 153 150 144 132 128 128 135 129 120 125 133 173 162 181 204 198 188 170 172 173 178 173 164 171 168 179 191 183 179 176 167 171 210 221 212 210
245 248 251 257 271 278 279 258 109 122 131 136 139 143 144 140 136 138 140 142 136 133 138 149 132 141 167 182 215 186 150 165 175 171 174 170 163 170 176 180 174 175 170 160 170 207 229 230 226
Height
1489 1489 1489 1491 1492 1496 1497 1491 1488 1490 1490 1492 1492 1493 1496 1500 1506 1516 1516 1514 1514 1513 1512 1512 1511 1511 1511 1511 1511 1512 1512 1513 1513 1513 1514 1514 1515 1515 1515 1516 1516 1516 1517 1517 1518 1518 1519 1519 1520
1489 1491 1492 1491 1495 1502 1500 1492 1492 1492 1494 1494 1495 1496 1498 1504 1508 1512 1514 1515 1515 1514 1513 1513 1512 1512 1512 1512 1512 1513 1513 1514 1514 1515 1515 1516 1516 1516 1517 1517 1518 1518 1518 1519 1519 1519 1520 1521 1522
1490 1491 1492 1490 1493 1499 1499 1492 1492 1494 1495 1495 1497 1499 1503 1508 1511 1513 1515 1515 1515 1514 1514 1514 1513 1513 1513 1513 1513 1513 1514 1515 1515 1516 1517 1517 1518 1518 1519 1519 1519 1520 1520 1520 1521 1521 1522 1523 1523
1492 1493 1492 1493 1496 1491 1491 1491 1492 1494 1496 1496 1498 1502 1507 1511 1513 1514 1515 1516 1515 1515 1515 1515 1514 1514 1513 1513 1513 1514 1515 1516 1517 1517 1518 1519 1519 1520 1520 1521 1521 1521 1522 1522 1522 1523 1524 1524 1525
1493 1492 1493 1496 1495 1490 1489 1491 1493 1495 1496 1498 1500 1505 1511 1514 1514 1515 1516 1517 1517 1516 1516 1516 1516 1515 1514 1513 1512 1513 1515 1517 1518 1519 1520 1520 1521 1521 1522 1522 1522 1523 1523 1523 1524 1524 1525 1526 1527
1494 1491 1497 1501 1496 1491 1491 1492 1494 1495 1497 1499 1502 1506 1512 1515 1515 1517 1517 1518 1518 1518 1517 1517 1517 1516 1515 1512 1509 1510 1514 1517 1519 1520 1521 1522 1522 1523 1523 1523 1524 1524 1524 1525 1525 1526 1527 1527 1528
1495 1493 1496 1496 1497 1495 1493 1494 1495 1497 1499 1501 1503 1506 1512 1515 1516 1518 1518 1519 1519 1520 1519 1519 1518 1518 1516 1514 1512 1513 1516 1519 1521 1522 1523 1523 1524 1524 1524 1525 1525 1526 1526 1526 1527 1528 1529 1529 1530
1493 1493 1495 1495 1498 1497 1494 1495 1497 1498 1500 1503 1504 1507 1512 1515 1517 1518 1519 1520 1520 1521 1521 1521 1520 1520 1519 1518 1518 1518 1520 1522 1523 1524 1525 1525 1525 1526 1526 1527 1527 1527 1527 1528 1529 1530 1530 1531 1532
1494 1497 1499 1496 1497 1496 1495 1496 1498 1500 1502 1504 1505 1508 1512 1515 1517 1519 1520 1521 1521 1522 1522 1522 1522 1522 1521 1521 1521 1522 1523 1524 1525 1526 1527 1527 1528 1528 1528 1528 1529 1529 1529 1530 1530 1531 1532 1533 1533
1494 1500 1496 1491 1492 1494 1495 1497 1498 1500 1502 1505 1507 1510 1513 1515 1517 1518 1520 1521 1522 1523 1523 1524 1524 1524 1524 1524 1524 1525 1525 1526 1527 1528 1528 1529 1530 1530 1530 1530 1531 1531 1531 1531 1532 1532 1533 1534 1534
1493 1496 1493 1492 1493 1494 1496 1497 1498 1500 1503 1505 1507 1510 1513 1515 1517 1518 1520 1521 1522 1523 1524 1525 1525 1525 1525 1526 1526 1527 1527 1528 1529 1529 1530 1530 1531 1532 1532 1532 1532 1532 1532 1532 1533 1533 1534 1535 1536
1493 1493 1493 1493 1495 1496 1497 1498 1499 1501 1503 1505 1507 1510 1512 1515 1516 1518 1520 1521 1522 1524 1525 1525 1526 1526 1526 1527 1527 1528 1529 1529 1530 1531 1531 1532 1532 1533 1533 1533 1533 1533 1533 1534 1534 1534 1535 1536 1537
1493 1494 1494 1495 1496 1497 1498 1499 1501 1502 1504 1506 1508 1509 1512 1514 1516 1518 1519 1521 1522 1524 1525 1526 1527 1527 1528 1528 1529 1529 1530 1531 1531 1532 1533 1533 1533 1534 1534 1534 1534 1534 1535 1535 1535 1535 1536 1536 1537
1493 1493 1495 1495 1496 1497 1498 1499 1501 1503 1505 1506 1508 1509 1512 1514 1516 1518 1519 1521 1522 1524 1525 1526 1527 1528 1528 1529 1530 1530 1531 1532 1532 1533 1533 1534 1534 1535 1535 1535 1535 1535 1536 1536 1536 1536 1537 1537 1538
1493 1494 1495 1494 1495 1497 1499 1501 1500 1502 1504 1506 1508 1509 1512 1514 1516 1517 1519 1521 1522 1524 1525 1526 1528 1528 1529 1529 1530 1531 1532 1532 1533 1533 1534 1535 1535 1535 1535 1535 1536 1536 1536 1536 1537 1537 1538 1538 1539
1492 1495 1500 1494 1493 1495 1501 1506 1500 1501 1503 1505 1507 1509 1511 1513 1515 1517 1518 1520 1522 1523 1525 1526 1528 1529 1529 1530 1531 1532 1532 1533 1533 1534 1535 1535 1535 1535 1536 1536 1536 1537 1537 1537 1537 1538 1538 1539 1540
1494 1500 1499 1495 1491 1492 1497 1502 1499 1500 1502 1503 1505 1507 1510 1512 1514 1516 1518 1520 1521 1523 1524 1526 1527 1529 1529 1530 1531 1532 1532 1533 1534 1534 1535 1535 1536 1536 1536 1536 1537 1537 1537 1537 1538 1539 1539 1540 1540
1498 1497 1495 1495 1491 1491 1496 1499 1498 1498 1500 1502 1503 1505 1508 1511 1513 1515 1517 1519 1521 1522 1524 1525 1527 1528 1529 1530 1531 1532 1532 1533 1533 1534 1534 1535 1535 1536 1536 1536 1537 1537 1537 1538 1538 1539 1540 1541 1541
1489 1492 1495 1492 1488 1491 1495 1497 1496 1496 1498 1500 1502 1504 1507 1509 1512 1514 1516 1518 1520 1522 1523 1524 1526 1528 1528 1529 1530 1531 1532 1532 1533 1534 1534 1535 1535 1536 1536 1536 1537 1537 1537 1538 1539 1539 1540 1541 1541
1489 1493 1494 1490 1487 1490 1494 1496 1494 1495 1496 1498 1500 1503 1506 1508 1510 1513 1515 1517 1519 1520 1522 1523 1525 1526 1527 1528 1529 1530 1531 1532 1532 1533 1533 1534 1535 1535 1536 1536 1536 1537 1537 1538 1539 1539 1540 1541 1542
1489 1491 1492 1494 1490 1488 1493 1498 1494 1494 1495 1498 1500 1501 1504 1507 1509 1511 1513 1514 1517 1518 1520 1522 1523 1525 1526 1527 1528 1529 1530 1531 1532 1532 1533 1533 1534 1534 1535 1535 1536 1536 1537 1537 1538 1539 1539 1540 1542
1492 1485 1487 1490 1496 1497 1493 1508 1495 1492 1494 1496 1498 1500 1502 1505 1507 1510 1511 1513 1515 1517 1518 1520 1521 1523 1524 1525 1526 1528 1528 1529 1530 1531 1531 1532 1533 1533 1534 1534 1535 1535 1536 1537 1537 1538 1539 1540 1541
1487 1484 1486 1488 1492 1497 1491 1499 1495 1488 1494 1494 1496 1499 1501 1503 1506 1508 1510 1512 1513 1515 1516 1518 1520 1521 1522 1524 1525 1526 1527 1528 1529 1530 1530 1531 1531 1532 1532 1533 1533 1534 1535 1536 1536 1537 1538 1539 1540
1484 1486 1485 1485 1491 1503 1490 1495 1496 1488 1488 1490 1493 1496 1499 1502 1504 1507 1508 1510 1512 1513 1514 1516 1518 1519 1520 1521 1522 1524 1525 1526 1527 1528 1528 1529 1529 1530 1531 1531 1532 1532 1533 1534 1535 1535 1536 1537 1538
1485 1494 1503 1504 1505 1499 1480 1487 1491 1481 1482 1486 1490 1494 1497 1500 1502 1505 1507 1508 1510 1511 1512 1514 1516 1517 1518 1519 1520 1521 1522 1523 1524 1525 1526 1527 1527 1528 1528 1529 1529 1530 1531 1532 1533 1533 1534 1535 1536
1485 1490 1507 1513 1506 1493 1481 1488 1486 1479 1482 1486 1489 1493 1496 1498 1501 1503 1505 1507 1508 1510 1511 1512 1514 1515 1516 1517 1518 1519 1520 1521 1522 1523 1524 1524 1525 1526 1526 1527 1528 1528 1529 1530 1530 1531 1532 1533 1534
1486 1487 1484 1495 1494 1497 1487 1485 1483 1481 1483 1486 1489 1492 1495 1497 1500 1502 1504 1505 1507 1508 1509 1511 1512 1513 1514 1514 1515 1516 1518 1518 1519 1520 1521 1522 1523 1523 1524 1525 1525 1526 1527 1527 1528 1529 1529 1531 1532
1481 1482 1486 1493 1503 1505 1491 1486 1488 1485 1484 1485 1488 1491 1494 1497 1499 1500 1502 1504 1505 1507 1507 1508 1509 1510 1511 1512 1513 1514 1515 1516 1517 1517 1518 1519 1520 1521 1522 1522 1523 1524 1524 1525 1526 1526 1527 1528 1529
1482 1484 1484 1487 1488 1500 1504 1495 1475 1479 1480 1483 1486 1490 1493 1495 1497 1499 1501 1503 1504 1505 1506 1507 1507 1508 1508 1509 1510 1511 1512 1513 1514 1515 1515 1516 1517 1518 1519 1520 1521 1521 1522 1522 1523 1524 1525 1525 1526
1476 1479 1482 1494 1493 1488 1495 1494 1474 1476 1479 1482 1485 1488 1491 1494 1496 1498 1500 1501 1502 1503 1504 1504 1505 1505 1505 1506 1507 1508 1509 1510 1511 1512 1513 1513 1514 1515 1516 1517 1518 1518 1519 1520 1520 1521 1522 1523 1524